K3TLB Weather Reports


time (UTC)temp
C
wind
direction
speed
KPH
gust
KPH
rain 1hr
cm
rain 24hr
cm
rain mn
cm
humidity
%
barometer
mb
20260506002922 24 192 6.4 24.1 0.00 0.00 0.00 42 1007.6
20260506002653 24 202 9.7 24.1 0.00 0.00 0.00 42 1007.5
20260506001921 24 171 12.9 24.1 0.00 0.00 0.00 41 1007.4
20260506001421 25 209 14.5 24.1 0.00 0.00 0.00 41 1007.3
20260506000915 25 182 12.9 27.4 0.00 0.00 0.00 40 1007.3
20260506000416 25 209 11.3 27.4 0.00 0.00 0.00 40 1007.3
20260506000146 25 194 12.9 30.6 0.00 0.00 0.00 40 1007.3
20260505235646 25 234 12.9 30.6 0.00 0.00 0.00 40 1007.4
20260505235146 25 205 12.9 30.6 0.00 0.00 0.00 40 1007.3
20260505235034 25 194 17.7 32.2 0.00 0.00 0.00 40 1007.2
20260505234141 25 178 19.3 35.4 0.00 0.00 0.00 39 1007.1
20260505233411 25 208 17.7 35.4 0.00 0.00 0.00 39 1007.1
20260505232907 25 167 19.3 38.6 0.00 0.00 0.00 39 1007.2
20260505232408 25 248 19.3 38.6 0.00 0.00 0.00 40 1007.1
20260505231909 25 163 19.3 35.4 0.00 0.00 0.00 39 1007.1
20260505231408 25 179 17.7 32.2 0.00 0.00 0.00 39 1007.1
20260505230904 26 192 17.7 32.2 0.00 0.00 0.00 40 1007.2
20260505230405 26 187 19.3 33.8 0.00 0.00 0.00 40 1007.1
20260505225903 26 184 19.3 33.8 0.00 0.00 0.00 41 1007.0
20260505225403 26 197 12.9 27.4 0.00 0.00 0.00 41 1007.0
20260505224902 26 198 9.7 25.7 0.00 0.00 0.00 41 1007.0
20260505224403 26 192 14.5 29.0 0.00 0.00 0.00 42 1007.0
20260505223856 26 178 16.1 33.8 0.00 0.00 0.00 43 1006.9
20260505223357 26 221 14.5 33.8 0.00 0.00 0.00 42 1006.9
20260505222857 26 201 16.1 35.4 0.00 0.00 0.00 43 1006.9
20260505222402 26 215 16.1 32.2 0.00 0.00 0.00 44 1007.1
20260505222357 26 223 16.1 35.4 0.00 0.00 0.00 42 1007.0
20260505221358 27 184 20.9 46.7 0.00 0.00 0.00 41 1006.9
20260505220851 26 227 22.5 46.7 0.00 0.00 0.00 41 1007.1
20260505220350 26 181 17.7 37.0 0.00 0.00 0.00 41 1007.2
20260505215849 26 178 14.5 37.0 0.00 0.00 0.00 43 1007.1
20260505215351 26 219 16.1 35.4 0.00 0.00 0.00 43 1007.1
20260505214851 26 211 16.1 33.8 0.00 0.00 0.00 43 1007.2
20260505214350 26 182 19.3 33.8 0.00 0.00 0.00 42 1007.2
20260505213846 26 216 22.5 49.9 0.00 0.00 0.00 42 1007.2
20260505213346 26 197 24.1 49.9 0.00 0.00 0.00 42 1007.0
20260505212846 26 188 22.5 48.3 0.00 0.00 0.00 41 1007.1
20260505212346 27 188 20.9 46.7 0.00 0.00 0.00 41 1006.9
20260505211845 27 240 22.5 40.2 0.00 0.00 0.00 42 1007.0
20260505211345 27 223 24.1 40.2 0.00 0.00 0.00 41 1007.0
20260505210841 27 198 22.5 48.3 0.00 0.00 0.00 41 1006.8
20260505210341 27 209 20.9 48.3 0.00 0.00 0.00 44 1006.8
20260505205841 27 193 20.9 40.2 0.00 0.00 0.00 44 1006.8
20260505205341 27 206 20.9 38.6 0.00 0.00 0.00 41 1007.0
20260505204838 27 190 20.9 45.1 0.00 0.00 0.00 43 1007.0
20260505204340 27 208 20.9 45.1 0.00 0.00 0.00 41 1006.9
20260505203835 27 197 20.9 43.5 0.00 0.00 0.00 42 1006.9
20260505203335 27 200 25.7 49.9 0.00 0.00 0.00 45 1007.1
20260505202835 27 173 29.0 49.9 0.00 0.00 0.00 42 1006.9
20260505202335 27 184 27.4 45.1 0.00 0.00 0.00 43 1007.0
20260505201832 27 188 25.7 46.7 0.00 0.00 0.00 43 1007.0
20260505201333 27 221 19.3 46.7 0.00 0.00 0.00 47 1007.1
20260505200831 27 181 17.7 35.4 0.00 0.00 0.00 45 1007.1
20260505200601 27 190 19.3 40.2 0.00 0.00 0.00 45 1007.2
20260505195831 27 215 16.1 40.2 0.00 0.00 0.00 43 1007.2
20260505195328 27 221 17.7 38.6 0.00 0.00 0.00 46 1007.3
20260505194826 27 196 17.7 38.6 0.00 0.00 0.00 45 1007.3
20260505194327 27 207 20.9 38.6 0.00 0.00 0.00 44 1007.4
20260505193825 27 199 25.7 46.7 0.00 0.00 0.00 46 1007.3
20260505193324 26 174 25.7 46.7 0.00 0.00 0.00 45 1007.3
20260505192825 27 192 22.5 40.2 0.00 0.00 0.00 42 1007.5
20260505192556 27 227 20.9 48.3 0.00 0.00 0.00 44 1007.7
20260505192443 27 215 24.1 48.3 0.00 0.00 0.00 44 1007.8
20260505191553 27 217 27.4 48.3 0.00 0.00 0.00 45 1007.7
20260505190821 27 242 22.5 48.3 0.00 0.00 0.00 42 1007.7
20260505190322 27 200 22.5 37.0 0.00 0.00 0.00 44 1007.7
20260505190058 27 211 20.9 37.0 0.00 0.00 0.00 44 1008.1
20260505185823 27 175 25.7 37.0 0.00 0.00 0.00 44 1007.8
20260505184818 27 182 17.7 35.4 0.00 0.00 0.00 45 1008.1
20260505184317 27 221 14.5 32.2 0.00 0.00 0.00 46 1008.1
20260505184048 27 220 19.3 40.2 0.00 0.00 0.00 46 1008.1
20260505183317 26 184 20.9 40.2 0.00 0.00 0.00 44 1008.2
20260505182818 27 207 17.7 38.6 0.00 0.00 0.00 48 1008.2
20260505182544 26 207 11.3 38.6 0.00 0.00 0.00 45 1008.3
20260505181814 27 234 12.9 37.0 0.00 0.00 0.00 45 1008.2
20260505181313 27 234 20.9 40.2 0.00 0.00 0.00 44 1008.1
20260505180814 27 258 22.5 40.2 0.00 0.00 0.00 46 1008.2
20260505180314 26 202 24.1 45.1 0.00 0.00 0.00 45 1008.5
20260505175814 27 213 22.5 45.1 0.00 0.00 0.00 44 1008.5
20260505175309 26 192 20.9 38.6 0.00 0.00 0.00 47 1008.5
20260505174809 26 215 24.1 43.5 0.00 0.00 0.00 46 1008.4
20260505174309 26 181 22.5 43.5 0.00 0.00 0.00 44 1008.5
20260505173810 26 202 19.3 38.6 0.00 0.00 0.00 45 1008.5
20260505173542 26 258 16.1 38.6 0.00 0.00 0.00 49 1008.5
20260505172810 26 215 12.9 33.8 0.00 0.00 0.00 46 1008.5
20260505172541 26 215 16.1 33.8 0.00 0.00 0.00 51 1008.5
20260505171810 26 197 19.3 38.6 0.00 0.00 0.00 47 1008.7
20260505171540 26 208 19.3 38.6 0.00 0.00 0.00 45 1008.7
20260505171035 26 229 20.9 37.0 0.00 0.00 0.00 44 1008.6
20260505170304 26 178 22.5 37.0 0.00 0.00 0.00 47 1008.7
20260505165805 26 201 22.5 37.0 0.00 0.00 0.00 46 1008.7
20260505165306 26 201 17.7 37.0 0.00 0.00 0.00 50 1009.0
20260505164805 25 217 14.5 37.0 0.00 0.00 0.00 55 1009.0
20260505164305 25 217 17.7 37.0 0.00 0.00 0.00 48 1009.3
20260505164300 26 240 16.1 37.0 0.00 0.00 0.00 49 1009.3
20260505163528 26 211 12.9 35.4 0.00 0.00 0.00 54 1009.4
20260505162758 25 219 14.5 35.4 0.00 0.00 0.00 54 1009.4
20260505162258 25 206 12.9 35.4 0.00 0.00 0.00 53 1009.4
20260505162030 25 205 16.1 35.4 0.00 0.00 0.00 56 1009.6
20260505161259 25 219 16.1 32.2 0.00 0.00 0.00 54 1009.6
20260505160751 25 235 14.5 32.2 0.00 0.00 0.00 52 1009.7
20260505160252 25 203 12.9 29.0 0.00 0.00 0.00 54 1009.7
20260505153252 25 150 9.7 27.4 0.00 0.00 0.00 56 1009.6
20260505153248 25 228 17.7 37.0 0.00 0.00 0.00 55 1009.7
20260505152246 24 216 6.4 27.4 0.00 0.00 0.00 55 1009.6
20260505151746 24 232 9.7 25.7 0.00 0.00 0.00 54 1009.5
20260505151246 24 99 11.3 27.4 0.00 0.00 0.00 59 1009.6
20260505150740 24 207 14.5 27.4 0.00 0.00 0.00 56 1009.6
20260505150240 24 204 11.3 25.7 0.00 0.00 0.00 55 1009.6
20260505140227 21 180 9.7 24.1 0.00 0.00 0.00 65 1010.3
20260505130218 18 169 0.0 0.0 0.00 0.00 0.00 73 1010.6
20260505124716 18 223 3.2 12.9 0.00 0.00 0.00 74 1010.6
20260505124215 17 174 1.6 11.3 0.00 0.00 0.00 73 1010.8
20260505123709 17 161 0.0 0.0 0.00 0.00 0.00 74 1010.8
20260505123209 17 183 0.0 0.0 0.00 0.00 0.00 78 1010.8
20260505122712 17 228 0.0 0.0 0.00 0.00 0.00 78 1010.6
20260505122210 16 113 0.0 0.0 0.00 0.00 0.00 79 1010.8
20260505121941 16 86 0.0 0.0 0.00 0.00 0.00 80 1010.5
20260505121210 15 86 0.0 0.0 0.00 0.00 0.00 81 1010.6
20260505120936 15 86 0.0 0.0 0.00 0.00 0.00 83 1010.5
20260505120201 14 86 0.0 0.0 0.00 0.00 0.00 84 1010.5
20260505115701 13 113 0.0 0.0 0.00 0.00 0.00 86 1010.6
20260505115158 13 113 0.0 0.0 0.00 0.00 0.00 86 1010.5
20260505114658 13 112 0.0 0.0 0.00 0.00 0.00 84 1010.4
20260505114156 13 121 0.0 0.0 0.00 0.00 0.00 84 1010.3
20260505113654 13 134 0.0 0.0 0.00 0.00 0.00 88 1010.4
20260505113153 13 98 0.0 0.0 0.00 0.00 0.00 89 1010.3
20260505112654 12 29 0.0 0.0 0.00 0.00 0.00 91 1010.2
20260505112152 12 43 0.0 0.0 0.00 0.00 0.00 91 1010.1
20260505111653 11 43 0.0 0.0 0.00 0.00 0.00 92 1010.1
20260505111146 11 74 0.0 0.0 0.00 0.00 0.00 95 1010.2
20260505110644 11 74 0.0 0.0 0.00 0.00 0.00 96 1010.2
20260505110413 10 344 0.0 0.0 0.00 0.00 0.00 95 1010.2
20260505102126 8 337 0.0 0.0 0.00 0.00 0.00 93 1009.8
20260505101623 8 325 0.0 0.0 0.00 0.00 0.00 93 1009.9
20260505101123 9 344 0.0 0.0 0.00 0.00 0.00 93 1009.8
20260505100624 9 348 0.0 0.0 0.00 0.00 0.00 94 1009.7
20260505100122 9 33 0.0 0.0 0.00 0.00 0.00 95 1009.6
20260505095621 8 26 0.0 0.0 0.00 0.00 0.00 94 1009.7
20260505095120 8 94 0.0 0.0 0.00 0.00 0.00 93 1009.6
20260505094618 9 78 0.0 0.0 0.00 0.00 0.00 94 1009.6
20260505094119 8 78 0.0 0.0 0.00 0.00 0.00 93 1009.8
20260505093617 9 108 0.0 0.0 0.00 0.00 0.00 92 1009.9
20260505092616 9 78 0.0 0.0 0.00 0.00 0.00 92 1009.4
20260505092108 9 71 0.0 0.0 0.00 0.00 0.00 93 1009.6
20260505091609 9 350 0.0 0.0 0.00 0.00 0.00 91 1009.6
20260505091108 9 350 0.0 0.0 0.00 0.00 0.00 91 1009.4
20260505090610 10 331 0.0 0.0 0.00 0.00 0.00 91 1009.3
20260505090109 10 333 0.0 0.0 0.00 0.00 0.00 92 1009.5
20260505085611 10 345 0.0 0.0 0.00 0.00 0.00 91 1009.3
20260505085106 10 46 0.0 0.0 0.00 0.00 0.00 91 1009.3
20260505084607 10 46 0.0 0.0 0.00 0.00 0.00 90 1009.3
20260505084108 10 351 0.0 0.0 0.00 0.00 0.00 90 1009.3
20260505083606 10 338 0.0 0.0 0.00 0.00 0.00 90 1009.4
20260505083106 10 5 0.0 0.0 0.00 0.00 0.00 90 1009.3
20260505082602 10 5 0.0 0.0 0.00 0.00 0.00 89 1009.3
20260505082102 10 5 0.0 0.0 0.00 0.00 0.00 88 1009.4
20260505081601 10 5 0.0 0.0 0.00 0.00 0.00 88 1009.4
20260505081102 11 19 0.0 0.0 0.00 0.00 0.00 88 1009.2
20260505080603 11 42 0.0 0.0 0.00 0.00 0.00 89 1009.3
20260505080058 11 41 0.0 0.0 0.00 0.00 0.00 89 1009.4
20260505075556 11 80 0.0 0.0 0.00 0.00 0.00 88 1009.4
20260505075057 11 83 0.0 0.0 0.00 0.00 0.00 88 1009.2
20260505074557 11 355 0.0 0.0 0.00 0.00 0.00 88 1009.2
20260505074056 11 338 0.0 0.0 0.00 0.00 0.00 87 1009.2
20260505073829 11 337 0.0 0.0 0.00 0.00 0.00 87 1009.2
20260505073052 11 337 0.0 0.0 0.00 0.00 0.00 88 1009.1
20260505072552 11 337 0.0 0.0 0.00 0.00 0.00 88 1009.0
20260505072053 11 38 0.0 0.0 0.00 0.00 0.00 88 1009.0
20260505071554 11 57 0.0 0.0 0.00 0.00 0.00 89 1008.9
20260505071052 11 55 0.0 0.0 0.00 0.00 0.00 89 1009.0
20260505070554 11 59 0.0 0.0 0.00 0.00 0.00 90 1009.0
20260505070048 12 46 0.0 0.0 0.00 0.00 0.00 90 1009.1
20260505065549 12 54 0.0 0.0 0.00 0.00 0.00 89 1009.0
20260505065049 12 43 0.0 0.0 0.00 0.00 0.00 89 1009.0
20260505064549 12 42 0.0 0.0 0.00 0.00 0.00 90 1009.1
20260505064049 12 67 0.0 0.0 0.00 0.00 0.00 89 1009.2
20260505063550 12 57 0.0 0.0 0.00 0.00 0.00 89 1009.1
20260505063044 12 47 0.0 0.0 0.00 0.00 0.00 88 1009.2
20260505062545 12 46 0.0 0.0 0.00 0.00 0.00 89 1009.2
20260505062046 12 52 0.0 0.0 0.00 0.00 0.00 88 1009.3
20260505061544 12 45 0.0 0.0 0.00 0.00 0.00 88 1009.3
20260505061046 12 44 0.0 0.0 0.00 0.00 0.00 87 1009.3
20260505060815 12 43 0.0 0.0 0.00 0.00 0.00 87 1009.4
20260505060041 12 54 0.0 0.0 0.00 0.00 0.00 86 1009.3
20260505055810 12 77 0.0 0.0 0.00 0.00 0.00 86 1009.3
20260505055037 12 77 0.0 0.0 0.00 0.00 0.00 85 1009.2
20260505054537 12 77 0.0 0.0 0.00 0.00 0.00 86 1009.2
20260505054030 12 77 0.0 0.0 0.00 0.00 0.00 85 1009.2
20260505053529 12 77 0.0 0.0 0.00 0.00 0.00 84 1009.3
20260505053027 12 111 0.0 0.0 0.00 0.00 0.00 84 1009.3
20260505052529 13 136 0.0 0.0 0.00 0.00 0.00 86 1009.4
20260505052525 12 109 0.0 0.0 0.00 0.00 0.00 84 1009.3
20260505051523 13 59 0.0 0.0 0.00 0.00 0.00 85 1009.4
20260505051020 13 59 0.0 0.0 0.00 0.00 0.00 85 1009.3
20260505050520 13 59 0.0 0.0 0.00 0.00 0.00 84 1009.4
20260505041509 13 197 0.0 0.0 0.00 0.00 0.00 75 1009.2
20260505041008 14 197 0.0 0.0 0.00 0.00 0.00 73 1009.2
20260505040510 14 197 0.0 0.0 0.00 0.00 0.00 73 1009.1
20260505040009 14 197 0.0 0.0 0.00 0.00 0.00 72 1009.1
20260505035508 15 195 0.0 0.0 0.00 0.00 0.00 70 1009.0
20260505035007 15 173 0.0 0.0 0.00 0.00 0.00 70 1009.0
20260505034504 15 158 0.0 0.0 0.00 0.00 0.00 70 1008.9
20260505034004 15 184 0.0 0.0 0.00 0.00 0.00 69 1008.9
20260505033505 15 184 0.0 0.0 0.00 0.00 0.00 67 1009.0
20260505033003 16 194 0.0 0.0 0.00 0.00 0.00 67 1009.0
20260505032501 16 202 0.0 0.0 0.00 0.00 0.00 67 1009.1
20260505032002 16 246 0.0 0.0 0.00 0.00 0.00 65 1009.2
20260505031455 16 198 0.0 12.9 0.00 0.00 0.00 67 1009.2
20260505030954 15 232 0.0 12.9 0.00 0.00 0.00 67 1009.2
20260505030454 15 220 1.6 12.9 0.00 0.00 0.00 69 1009.2
20260505025955 15 190 1.6 12.9 0.00 0.00 0.00 70 1009.1
20260505025456 15 230 0.0 0.0 0.00 0.00 0.00 70 1009.2
20260505024955 15 290 0.0 0.0 0.00 0.00 0.00 69 1009.2
20260505024451 16 169 0.0 0.0 0.00 0.00 0.00 67 1009.0
20260505023950 16 5 0.0 0.0 0.00 0.00 0.00 64 1008.9
20260505023451 16 339 0.0 0.0 0.00 0.00 0.00 63 1009.1
20260505022952 17 347 0.0 0.0 0.00 0.00 0.00 62 1008.9
20260505022449 18 162 0.0 0.0 0.00 0.00 0.00 59 1009.0
20260505021948 18 178 0.0 0.0 0.00 0.00 0.00 58 1008.9
20260505021444 18 135 0.0 0.0 0.00 0.00 0.00 57 1008.9
20260505021216 18 135 0.0 0.0 0.00 0.00 0.00 58 1009.0
20260505020444 18 150 0.0 0.0 0.00 0.00 0.00 58 1008.9
20260505015945 18 156 0.0 4.8 0.00 0.00 0.00 57 1008.9
20260505015443 18 182 0.0 4.8 0.00 0.00 0.00 57 1009.1
20260505014944 18 175 0.0 6.4 0.00 0.00 0.00 57 1009.0
20260505014439 18 172 0.0 6.4 0.00 0.00 0.00 56 1008.8
20260505013939 18 128 0.0 9.7 0.00 0.00 0.00 56 1008.8
20260505013438 18 133 0.0 9.7 0.00 0.00 0.00 55 1008.9
20260505012939 18 159 3.2 16.1 0.00 0.00 0.00 56 1008.9
20260505012709 19 148 4.8 17.7 0.00 0.00 0.00 55 1009.0
20260505012554 19 144 3.2 17.7 0.00 0.00 0.00 54 1008.8
20260505011435 19 139 3.2 16.1 0.00 0.00 0.00 54 1008.9
20260505011431 19 140 1.6 16.1 0.00 0.00 0.00 54 1008.9
20260505010433 19 160 4.8 16.1 0.00 0.00 0.00 53 1008.6
20260505005931 20 182 6.4 20.9 0.00 0.00 0.00 53 1008.6
20260505005431 20 128 3.2 20.9 0.00 0.00 0.00 52 1008.5
20260505004931 20 124 0.0 0.0 0.00 0.00 0.00 53 1008.5
20260505004425 20 119 0.0 0.0 0.00 0.00 0.00 52 1008.5
20260505003925 20 147 0.0 12.9 0.00 0.00 0.00 51 1008.2
20260505003655 20 169 0.0 12.9 0.00 0.00 0.00 51 1008.3